Year,Month,Day,Hour,Minute,Value (Times are PST for temperature in C)
2010,03,20,00,00,5.50
2010,03,20,00,01,5.50
2010,03,20,00,02,5.50
2010,03,20,00,03,5.40
2010,03,20,00,04,5.40
2010,03,20,00,05,5.40
2010,03,20,00,06,5.40
2010,03,20,00,07,5.40
2010,03,20,00,08,5.40
2010,03,20,00,09,5.40
2010,03,20,00,10,5.40
2010,03,20,00,11,5.40
2010,03,20,00,12,5.40
2010,03,20,00,13,5.40
2010,03,20,00,14,5.40
2010,03,20,00,15,5.40
2010,03,20,00,16,5.40
2010,03,20,00,17,5.40
2010,03,20,00,18,5.30
2010,03,20,00,19,5.30
2010,03,20,00,20,5.30
2010,03,20,00,21,5.30
2010,03,20,00,22,5.30
2010,03,20,00,23,5.30
2010,03,20,00,24,5.30
2010,03,20,00,25,5.30
2010,03,20,00,26,5.30
2010,03,20,00,27,5.30
2010,03,20,00,28,5.30
2010,03,20,00,29,5.30
2010,03,20,00,30,5.30
2010,03,20,00,31,5.30
2010,03,20,00,32,5.30
2010,03,20,00,33,5.30
2010,03,20,00,34,5.30
2010,03,20,00,35,5.30
2010,03,20,00,36,5.30
2010,03,20,00,37,5.30
2010,03,20,00,38,5.30
2010,03,20,00,39,5.30
2010,03,20,00,40,5.30
2010,03,20,00,41,5.30
2010,03,20,00,42,5.30
2010,03,20,00,43,5.30
2010,03,20,00,44,5.20
2010,03,20,00,45,5.20
2010,03,20,00,46,5.20
2010,03,20,00,47,5.20
2010,03,20,00,48,5.20
2010,03,20,00,49,5.10
2010,03,20,00,50,5.10
2010,03,20,00,51,5.10
2010,03,20,00,52,5.10
2010,03,20,00,53,5.10
2010,03,20,00,54,5.10
2010,03,20,00,55,5.10
2010,03,20,00,56,5.10
2010,03,20,00,57,5.10
2010,03,20,00,58,5.10
2010,03,20,00,59,5.10
2010,03,20,01,00,5.10
2010,03,20,01,01,5.10
2010,03,20,01,02,5.10
2010,03,20,01,03,5.10
2010,03,20,01,04,5.10
2010,03,20,01,05,5.10
2010,03,20,01,06,5.10
2010,03,20,01,07,5.10
2010,03,20,01,08,5.10
2010,03,20,01,09,5.10
2010,03,20,01,10,5.10
2010,03,20,01,11,5.10
2010,03,20,01,12,5.10
2010,03,20,01,13,5.10
2010,03,20,01,14,5.10
2010,03,20,01,15,5.10
2010,03,20,01,16,5.10
2010,03,20,01,17,5.10
2010,03,20,01,18,5.10
2010,03,20,01,19,5.10
2010,03,20,01,20,5.10
2010,03,20,01,21,5.10
2010,03,20,01,22,5.10
2010,03,20,01,23,5.10
2010,03,20,01,24,5.10
2010,03,20,01,25,5.10
2010,03,20,01,26,5.10
2010,03,20,01,27,5.10
2010,03,20,01,28,5.10
2010,03,20,01,29,5.10
2010,03,20,01,30,5.10
2010,03,20,01,31,5.00
2010,03,20,01,32,5.00
2010,03,20,01,33,4.90
2010,03,20,01,34,4.90
2010,03,20,01,35,4.90
2010,03,20,01,36,4.90
2010,03,20,01,37,4.90
2010,03,20,01,38,4.90
2010,03,20,01,39,4.90
2010,03,20,01,40,4.90
2010,03,20,01,41,4.90
2010,03,20,01,42,4.90
2010,03,20,01,43,4.80
2010,03,20,01,44,4.80
2010,03,20,01,45,4.80
2010,03,20,01,46,4.80
2010,03,20,01,47,4.80
2010,03,20,01,48,4.80
2010,03,20,01,49,4.80
2010,03,20,01,50,4.80
2010,03,20,01,51,4.80
2010,03,20,01,52,4.80
2010,03,20,01,53,4.80
2010,03,20,01,54,4.80
2010,03,20,01,55,4.80
2010,03,20,01,56,4.80
2010,03,20,01,57,4.80
2010,03,20,01,58,4.80
2010,03,20,01,59,4.80
2010,03,20,02,00,4.80
2010,03,20,02,01,4.80
2010,03,20,02,02,4.80
2010,03,20,02,03,4.80
2010,03,20,02,04,4.80
2010,03,20,02,05,4.70
2010,03,20,02,06,4.70
2010,03,20,02,07,4.70
2010,03,20,02,08,4.70
2010,03,20,02,09,4.70
2010,03,20,02,10,4.70
2010,03,20,02,11,4.70
2010,03,20,02,12,4.70
2010,03,20,02,13,4.70
2010,03,20,02,14,4.70
2010,03,20,02,15,4.70
2010,03,20,02,16,4.70
2010,03,20,02,17,4.70
2010,03,20,02,18,4.70
2010,03,20,02,19,4.70
2010,03,20,02,20,4.70
2010,03,20,02,21,4.70
2010,03,20,02,22,4.60
2010,03,20,02,23,4.60
2010,03,20,02,24,4.60
2010,03,20,02,25,4.60
2010,03,20,02,26,4.60
2010,03,20,02,27,4.60
2010,03,20,02,28,4.60
2010,03,20,02,29,4.70
2010,03,20,02,30,4.70
2010,03,20,02,31,4.70
2010,03,20,02,32,4.70
2010,03,20,02,33,4.70
2010,03,20,02,34,4.70
2010,03,20,02,35,4.70
2010,03,20,02,36,4.70
2010,03,20,02,37,4.70
2010,03,20,02,38,4.80
2010,03,20,02,39,4.80
2010,03,20,02,40,4.80
2010,03,20,02,41,4.80
2010,03,20,02,42,4.80
2010,03,20,02,43,4.80
2010,03,20,02,44,4.80
2010,03,20,02,45,4.80
2010,03,20,02,46,4.80
2010,03,20,02,47,4.80
2010,03,20,02,48,4.80
2010,03,20,02,49,4.80
2010,03,20,02,50,4.80
2010,03,20,02,51,4.80
2010,03,20,02,52,4.80
2010,03,20,02,53,4.80
2010,03,20,02,54,4.70
2010,03,20,02,55,4.70
2010,03,20,02,56,4.70
2010,03,20,02,57,4.70
2010,03,20,02,58,4.60
2010,03,20,02,59,4.60
2010,03,20,03,00,4.60
2010,03,20,03,01,4.60
2010,03,20,03,02,4.60
2010,03,20,03,03,4.60
2010,03,20,03,04,4.60
2010,03,20,03,05,4.60
2010,03,20,03,06,4.60
2010,03,20,03,07,4.60
2010,03,20,03,08,4.60
2010,03,20,03,09,4.60
2010,03,20,03,10,4.60
2010,03,20,03,11,4.60
2010,03,20,03,12,4.60
2010,03,20,03,13,4.60
2010,03,20,03,14,4.60
2010,03,20,03,15,4.60
2010,03,20,03,16,4.60
2010,03,20,03,17,4.60
2010,03,20,03,18,4.60
2010,03,20,03,19,4.60
2010,03,20,03,20,4.60
2010,03,20,03,21,4.60
2010,03,20,03,22,4.60
2010,03,20,03,23,4.60
2010,03,20,03,24,4.60
2010,03,20,03,25,4.60
2010,03,20,03,26,4.60
2010,03,20,03,27,4.60
2010,03,20,03,28,4.60
2010,03,20,03,29,4.70
2010,03,20,03,30,4.70
2010,03,20,03,31,4.70
2010,03,20,03,32,4.70
2010,03,20,03,33,4.70
2010,03,20,03,34,4.70
2010,03,20,03,35,4.70
2010,03,20,03,36,4.70
2010,03,20,03,37,4.80
2010,03,20,03,38,4.80
2010,03,20,03,39,4.80
2010,03,20,03,40,4.80
2010,03,20,03,41,4.90
2010,03,20,03,42,4.90
2010,03,20,03,43,4.90
2010,03,20,03,44,4.90
2010,03,20,03,45,4.90
2010,03,20,03,46,4.90
2010,03,20,03,47,4.90
2010,03,20,03,48,4.90
2010,03,20,03,49,4.90
2010,03,20,03,50,4.90
2010,03,20,03,51,4.90
2010,03,20,03,52,4.90
2010,03,20,03,53,4.90
2010,03,20,03,54,4.90
2010,03,20,03,55,4.90
2010,03,20,03,56,4.80
2010,03,20,03,57,4.80
2010,03,20,03,58,4.80
2010,03,20,03,59,4.80
2010,03,20,04,00,4.80
2010,03,20,04,01,4.80
2010,03,20,04,02,4.80
2010,03,20,04,03,4.80
2010,03,20,04,04,4.70
2010,03,20,04,05,4.70
2010,03,20,04,06,4.70
2010,03,20,04,07,4.60
2010,03,20,04,08,4.60
2010,03,20,04,09,4.60
2010,03,20,04,10,4.60
2010,03,20,04,11,4.60
2010,03,20,04,12,4.60
2010,03,20,04,13,4.60
2010,03,20,04,14,4.50
2010,03,20,04,15,4.50
2010,03,20,04,16,4.50
2010,03,20,04,17,4.40
2010,03,20,04,18,4.40
2010,03,20,04,19,4.40
2010,03,20,04,20,4.40
2010,03,20,04,21,4.40
2010,03,20,04,22,4.40
2010,03,20,04,23,4.40
2010,03,20,04,24,4.40
2010,03,20,04,25,4.40
2010,03,20,04,26,4.40
2010,03,20,04,27,4.40
2010,03,20,08,07,4.10
2010,03,20,08,08,4.10
2010,03,20,08,09,4.10
2010,03,20,08,10,4.10
2010,03,20,08,11,4.20
2010,03,20,08,12,4.20
2010,03,20,08,13,4.20
2010,03,20,08,14,4.20
2010,03,20,08,15,4.20
2010,03,20,08,16,4.20
2010,03,20,08,17,4.10
2010,03,20,08,18,4.20
2010,03,20,08,19,4.20
2010,03,20,08,20,4.20
2010,03,20,08,21,4.20
2010,03,20,08,22,4.30
2010,03,20,08,23,4.30
2010,03,20,08,24,4.40
2010,03,20,08,25,4.40
2010,03,20,08,26,4.50
2010,03,20,08,27,4.50
2010,03,20,08,28,4.50
2010,03,20,08,29,4.50
2010,03,20,08,30,4.60
2010,03,20,08,31,4.60
2010,03,20,08,32,4.60
2010,03,20,08,33,4.60
2010,03,20,08,34,4.60
2010,03,20,08,35,4.60
2010,03,20,08,36,4.60
2010,03,20,08,37,4.60
2010,03,20,08,38,4.60
2010,03,20,08,39,4.60
2010,03,20,08,40,4.60
2010,03,20,08,41,4.60
2010,03,20,08,42,4.60
2010,03,20,08,43,4.60
2010,03,20,08,44,4.70
2010,03,20,08,45,4.70
2010,03,20,08,46,4.80
2010,03,20,08,47,4.80
2010,03,20,08,48,4.90
2010,03,20,08,49,4.90
2010,03,20,08,50,4.90
2010,03,20,08,51,4.90
2010,03,20,08,52,4.90
2010,03,20,08,53,5.00
2010,03,20,08,54,5.10
2010,03,20,08,55,5.10
2010,03,20,08,56,5.10
2010,03,20,08,57,5.10
2010,03,20,08,58,5.10
2010,03,20,08,59,5.10
2010,03,20,09,00,5.10
2010,03,20,09,01,5.20
2010,03,20,09,02,5.20
2010,03,20,09,03,5.30
2010,03,20,09,04,5.30
2010,03,20,09,05,5.30
2010,03,20,09,06,5.40
2010,03,20,09,07,5.40
2010,03,20,09,08,5.40
2010,03,20,09,09,5.40
2010,03,20,09,10,5.40
2010,03,20,09,11,5.50
2010,03,20,09,12,5.50
2010,03,20,09,13,5.50
2010,03,20,09,14,5.50
2010,03,20,09,15,5.60
2010,03,20,09,16,5.60
2010,03,20,09,17,5.70
2010,03,20,09,18,5.70
2010,03,20,09,19,5.70
2010,03,20,09,20,5.70
2010,03,20,09,21,5.80
2010,03,20,09,22,5.90
2010,03,20,09,23,5.90
2010,03,20,09,24,5.90
2010,03,20,09,25,5.90
2010,03,20,09,26,6.00
2010,03,20,09,27,6.00
2010,03,20,09,28,6.00
2010,03,20,09,29,6.10
2010,03,20,09,30,6.10
2010,03,20,09,31,6.20
2010,03,20,09,32,6.20
2010,03,20,09,33,6.30
2010,03,20,09,34,6.30
2010,03,20,09,35,6.40
2010,03,20,09,36,6.40
2010,03,20,09,37,6.40
2010,03,20,09,38,6.60
2010,03,20,09,39,6.60
2010,03,20,09,40,6.60
2010,03,20,09,41,6.70
2010,03,20,09,42,6.70
2010,03,20,09,43,6.70
2010,03,20,09,44,6.70
2010,03,20,09,45,6.70
2010,03,20,09,46,6.80
2010,03,20,09,47,6.80
2010,03,20,09,48,6.80
2010,03,20,09,49,6.80
2010,03,20,09,50,6.80
2010,03,20,09,51,6.90
2010,03,20,09,52,6.90
2010,03,20,09,53,7.00
2010,03,20,09,54,7.10
2010,03,20,09,55,7.20
2010,03,20,09,56,7.30
2010,03,20,09,57,7.40
2010,03,20,09,58,7.50
2010,03,20,09,59,7.60
2010,03,20,10,00,7.70
2010,03,20,10,01,7.80
2010,03,20,10,02,7.90
2010,03,20,10,03,8.00
2010,03,20,10,04,8.10
2010,03,20,10,05,8.10
2010,03,20,10,06,8.20
2010,03,20,10,07,8.20
2010,03,20,10,08,8.20
2010,03,20,10,09,8.20
2010,03,20,10,10,8.20
2010,03,20,10,11,8.20
2010,03,20,10,12,8.20
2010,03,20,10,13,8.20
2010,03,20,10,14,8.20
2010,03,20,10,15,8.30
2010,03,20,10,16,8.30
2010,03,20,10,17,8.40
2010,03,20,10,18,8.40
2010,03,20,10,19,8.40
2010,03,20,10,20,8.50
2010,03,20,10,21,8.50
2010,03,20,10,22,8.50
2010,03,20,10,23,8.50
2010,03,20,10,24,8.50
2010,03,20,10,25,8.50
2010,03,20,10,26,8.50
2010,03,20,10,27,8.50
2010,03,20,10,28,8.60
2010,03,20,10,29,8.60
2010,03,20,10,30,8.60
2010,03,20,10,31,8.60
2010,03,20,10,32,8.60
2010,03,20,10,33,8.60
2010,03,20,10,34,8.60
2010,03,20,10,35,8.70
2010,03,20,10,36,8.70
2010,03,20,10,37,8.70
2010,03,20,10,38,8.70
2010,03,20,10,39,8.70
2010,03,20,10,40,8.70
2010,03,20,10,41,8.70
2010,03,20,10,42,8.80
2010,03,20,10,43,8.80
2010,03,20,10,44,8.90
2010,03,20,10,45,8.90
2010,03,20,10,46,9.00
2010,03,20,10,47,9.00
2010,03,20,10,48,9.10
2010,03,20,10,49,9.10
2010,03,20,10,50,9.10
2010,03,20,10,51,9.20
2010,03,20,10,52,9.20
2010,03,20,10,53,9.20
2010,03,20,10,54,9.20
2010,03,20,10,55,9.20
2010,03,20,10,56,9.20
2010,03,20,10,57,9.20
2010,03,20,10,58,9.20
2010,03,20,10,59,9.30
2010,03,20,11,00,9.30
2010,03,20,11,01,9.40
2010,03,20,11,02,9.40
2010,03,20,11,03,9.50
2010,03,20,11,04,9.50
2010,03,20,11,05,9.50
2010,03,20,11,06,9.50
2010,03,20,11,07,9.50
2010,03,20,11,08,9.60
2010,03,20,11,09,9.50
2010,03,20,11,10,9.50
2010,03,20,11,11,9.40
2010,03,20,11,12,9.40
2010,03,20,11,13,9.40
2010,03,20,11,14,9.40
2010,03,20,11,15,9.50
2010,03,20,11,16,9.40
2010,03,20,11,17,9.40
2010,03,20,11,18,9.40
2010,03,20,11,19,9.30
2010,03,20,11,20,9.30
2010,03,20,11,21,9.20
2010,03,20,11,22,9.20
2010,03,20,11,23,9.20
2010,03,20,11,24,9.20
2010,03,20,11,25,9.20
2010,03,20,11,26,9.20
2010,03,20,11,27,9.20
2010,03,20,11,28,9.20
2010,03,20,11,29,9.20
2010,03,20,11,30,9.20
2010,03,20,11,31,9.20
2010,03,20,11,32,9.10
2010,03,20,11,33,9.10
2010,03,20,11,34,9.10
2010,03,20,11,35,9.10
2010,03,20,11,36,9.10
2010,03,20,11,37,9.10
2010,03,20,11,38,9.10
2010,03,20,11,39,9.10
2010,03,20,11,40,9.10
2010,03,20,11,41,9.20
2010,03,20,11,42,9.20
2010,03,20,11,43,9.20
2010,03,20,11,44,9.20
2010,03,20,11,45,9.20
2010,03,20,11,46,9.20
2010,03,20,11,47,9.20
2010,03,20,11,48,9.20
2010,03,20,11,49,9.20
2010,03,20,11,50,9.20
2010,03,20,11,51,9.20
2010,03,20,11,52,9.20
2010,03,20,11,53,9.20
2010,03,20,11,54,9.20
2010,03,20,11,55,9.30
2010,03,20,11,56,9.30
2010,03,20,11,57,9.40
2010,03,20,11,58,9.50
2010,03,20,11,59,9.50
2010,03,20,12,00,9.60
2010,03,20,12,01,9.60
2010,03,20,12,02,9.60
2010,03,20,12,03,9.70
2010,03,20,12,04,9.70
2010,03,20,12,05,9.70
2010,03,20,12,06,9.70
2010,03,20,12,07,9.80
2010,03,20,12,08,9.80
2010,03,20,12,09,9.90
2010,03,20,12,10,9.90
2010,03,20,12,11,9.90
2010,03,20,12,12,9.90
2010,03,20,12,13,9.90
2010,03,20,12,14,9.90
2010,03,20,12,15,10.00
2010,03,20,12,16,10.10
2010,03,20,12,17,10.10
2010,03,20,12,18,10.10
2010,03,20,12,19,10.10
2010,03,20,12,20,10.10
2010,03,20,12,21,10.10
2010,03,20,12,22,10.20
2010,03,20,12,23,10.20
2010,03,20,12,24,10.20
2010,03,20,12,25,10.20
2010,03,20,12,26,10.20
2010,03,20,12,27,10.20
2010,03,20,12,28,10.20
2010,03,20,12,29,10.10
2010,03,20,12,30,10.10
2010,03,20,12,31,10.10
2010,03,20,12,32,10.10
2010,03,20,12,33,10.20
2010,03,20,12,34,10.20
2010,03,20,12,35,10.30
2010,03,20,12,36,10.40
2010,03,20,12,37,10.40
2010,03,20,12,38,10.40
2010,03,20,12,39,10.40
2010,03,20,12,40,10.40
2010,03,20,12,41,10.40
2010,03,20,12,42,10.40
2010,03,20,12,43,10.40
2010,03,20,12,44,10.40
2010,03,20,12,45,10.40
2010,03,20,12,46,10.40
2010,03,20,12,47,10.50
2010,03,20,12,48,10.60
2010,03,20,12,49,10.60
2010,03,20,12,50,10.60
2010,03,20,12,51,10.60
2010,03,20,12,52,10.70
2010,03,20,12,53,10.70
2010,03,20,12,54,10.80
2010,03,20,12,55,10.80
2010,03,20,12,56,10.80
2010,03,20,12,57,10.90
2010,03,20,12,58,10.90
2010,03,20,12,59,10.90
2010,03,20,13,00,11.00
2010,03,20,13,01,11.10
2010,03,20,13,02,11.10
2010,03,20,13,03,11.10
2010,03,20,13,04,11.20
2010,03,20,13,05,11.20
2010,03,20,13,06,11.30
2010,03,20,13,07,11.30
2010,03,20,13,08,11.40
2010,03,20,13,09,11.40
2010,03,20,13,10,11.40
2010,03,20,13,11,11.40
2010,03,20,13,12,11.40
2010,03,20,13,13,11.40
2010,03,20,13,14,11.40
2010,03,20,13,15,11.30
2010,03,20,13,16,11.30
2010,03,20,13,17,11.30
2010,03,20,13,18,11.30
2010,03,20,13,19,11.30
2010,03,20,13,20,11.30
2010,03,20,13,21,11.30
2010,03,20,13,22,11.30
2010,03,20,13,23,11.30
2010,03,20,13,24,11.30
2010,03,20,13,25,11.30
2010,03,20,13,26,11.30
2010,03,20,13,27,11.30
2010,03,20,13,28,11.30
2010,03,20,13,29,11.30
2010,03,20,13,30,11.30
2010,03,20,13,31,11.30
2010,03,20,13,32,11.30
2010,03,20,13,33,11.20
2010,03,20,13,34,11.20
2010,03,20,13,35,11.20
2010,03,20,13,36,11.20
2010,03,20,13,37,11.20
2010,03,20,13,38,11.20
2010,03,20,13,39,11.10
2010,03,20,13,40,11.10
2010,03,20,13,41,11.20
2010,03,20,13,42,11.20
2010,03,20,13,43,11.20
2010,03,20,13,44,11.20
2010,03,20,13,45,11.20
2010,03,20,13,46,11.20
2010,03,20,13,47,11.20
2010,03,20,13,48,11.10
2010,03,20,13,49,11.10
2010,03,20,13,50,10.90
2010,03,20,13,51,10.90
2010,03,20,13,52,10.90
2010,03,20,13,53,10.90
2010,03,20,13,54,10.90
2010,03,20,13,55,10.90
2010,03,20,13,56,10.90
2010,03,20,13,57,11.00
2010,03,20,13,58,11.10
2010,03,20,13,59,11.10
2010,03,20,14,00,11.10
2010,03,20,14,01,11.10
2010,03,20,14,02,11.10
2010,03,20,14,03,11.10
2010,03,20,14,04,11.10
2010,03,20,14,05,11.10
2010,03,20,14,06,11.10
2010,03,20,14,07,11.20
2010,03,20,14,08,11.20
2010,03,20,14,09,11.20
2010,03,20,14,10,11.20
2010,03,20,14,11,11.20
2010,03,20,14,12,11.20
2010,03,20,14,13,11.20
2010,03,20,14,14,11.20
2010,03,20,14,15,11.20
2010,03,20,14,16,11.20
2010,03,20,14,17,11.20
2010,03,20,14,18,11.30
2010,03,20,14,19,11.30
2010,03,20,14,20,11.40
2010,03,20,14,21,11.40
2010,03,20,14,22,11.40
2010,03,20,14,23,11.50
2010,03,20,14,24,11.60
2010,03,20,14,25,11.60
2010,03,20,14,26,11.60
2010,03,20,14,27,11.70
2010,03,20,14,28,11.70
2010,03,20,14,29,11.80
2010,03,20,14,30,11.80
2010,03,20,14,31,11.80
2010,03,20,14,32,11.80
2010,03,20,14,33,11.90
2010,03,20,14,34,11.90
2010,03,20,14,35,11.90
2010,03,20,14,36,12.00
2010,03,20,14,37,12.00
2010,03,20,14,38,12.10
2010,03,20,14,39,12.10
2010,03,20,14,40,12.20
2010,03,20,14,41,12.20
2010,03,20,14,42,12.20
2010,03,20,14,43,12.20
2010,03,20,14,44,12.20
2010,03,20,14,45,12.20
2010,03,20,14,46,12.20
2010,03,20,14,47,12.20
2010,03,20,14,48,12.20
2010,03,20,14,49,12.30
2010,03,20,14,50,12.30
2010,03,20,14,51,12.30
2010,03,20,14,52,12.30
2010,03,20,14,53,12.30
2010,03,20,14,54,12.30
2010,03,20,14,55,12.30
2010,03,20,14,56,12.30
2010,03,20,14,57,12.30
2010,03,20,14,58,12.30
2010,03,20,14,59,12.30
2010,03,20,15,00,12.30
2010,03,20,15,01,12.30
2010,03,20,15,02,12.20
2010,03,20,15,03,12.20
2010,03,20,15,04,12.20
2010,03,20,15,05,12.20
2010,03,20,15,06,12.20
2010,03,20,15,07,12.20
2010,03,20,15,08,12.20
2010,03,20,15,09,12.10
2010,03,20,15,10,12.10
2010,03,20,15,11,12.10
2010,03,20,15,12,12.10
2010,03,20,15,13,12.20
2010,03,20,15,14,12.20
2010,03,20,15,15,12.20
2010,03,20,15,16,12.30
2010,03,20,15,17,12.30
2010,03,20,15,18,12.30
2010,03,20,15,19,12.40
2010,03,20,15,20,12.40
2010,03,20,15,21,12.50
2010,03,20,15,22,12.50
2010,03,20,15,23,12.50
2010,03,20,15,24,12.60
2010,03,20,15,25,12.60
2010,03,20,15,26,12.60
2010,03,20,15,27,12.60
2010,03,20,15,28,12.60
2010,03,20,15,29,12.60
2010,03,20,15,30,12.60
2010,03,20,15,31,12.60
2010,03,20,15,32,12.70
2010,03,20,15,33,12.70
2010,03,20,15,34,12.70
2010,03,20,15,35,12.70
2010,03,20,15,36,12.70
2010,03,20,15,37,12.60
2010,03,20,15,38,12.60
2010,03,20,15,39,12.60
2010,03,20,15,40,12.60
2010,03,20,15,41,12.60
2010,03,20,15,42,12.50
2010,03,20,15,43,12.50
2010,03,20,15,44,12.50
2010,03,20,15,45,12.50
2010,03,20,15,46,12.50
2010,03,20,15,47,12.50
2010,03,20,15,48,12.50
2010,03,20,15,49,12.50
2010,03,20,15,50,12.60
2010,03,20,15,51,12.60
2010,03,20,15,52,12.60
2010,03,20,15,53,12.60
2010,03,20,15,54,12.60
2010,03,20,15,55,12.60
2010,03,20,15,56,12.60
2010,03,20,15,57,12.60
2010,03,20,15,58,12.60
2010,03,20,15,59,12.60
2010,03,20,16,00,12.70
2010,03,20,16,01,12.70
2010,03,20,16,02,12.60
2010,03,20,16,03,12.60
2010,03,20,16,04,12.60
2010,03,20,16,05,12.60
2010,03,20,16,06,12.60
2010,03,20,16,07,12.60
2010,03,20,16,08,12.70
2010,03,20,16,09,12.70
2010,03,20,16,10,12.70
2010,03,20,16,11,12.70
2010,03,20,16,12,12.70
2010,03,20,16,13,12.70
2010,03,20,16,14,12.80
2010,03,20,16,15,12.80
2010,03,20,16,16,12.80
2010,03,20,16,17,12.80
2010,03,20,16,18,12.80
2010,03,20,16,19,12.80
2010,03,20,16,20,12.80
2010,03,20,16,21,12.80
2010,03,20,16,22,12.80
2010,03,20,16,23,12.70
2010,03,20,16,24,12.70
2010,03,20,16,25,12.70
2010,03,20,16,26,12.70
2010,03,20,16,27,12.80
2010,03,20,16,28,12.80
2010,03,20,16,29,12.80
2010,03,20,16,30,12.80
2010,03,20,16,31,12.80
2010,03,20,16,32,12.80
2010,03,20,16,33,12.80
2010,03,20,16,34,12.80
2010,03,20,16,35,12.80
2010,03,20,16,36,12.80
2010,03,20,16,37,12.80
2010,03,20,16,38,12.80
2010,03,20,16,39,12.80
2010,03,20,16,40,12.80
2010,03,20,16,41,12.80
2010,03,20,16,42,12.80
2010,03,20,16,43,12.80
2010,03,20,16,44,12.80
2010,03,20,16,45,12.80
2010,03,20,16,46,12.80
2010,03,20,16,47,12.70
2010,03,20,16,48,12.70
2010,03,20,16,49,12.70
2010,03,20,16,50,12.70
2010,03,20,16,51,12.70
2010,03,20,16,52,12.70
2010,03,20,16,53,12.70
2010,03,20,16,54,12.70
2010,03,20,16,55,12.70
2010,03,20,16,56,12.70
2010,03,20,16,57,12.70
2010,03,20,16,58,12.70
2010,03,20,16,59,12.70
2010,03,20,17,00,12.70
2010,03,20,17,01,12.70
2010,03,20,17,02,12.60
2010,03,20,17,03,12.60
2010,03,20,17,04,12.60
2010,03,20,17,05,12.60
2010,03,20,17,06,12.60
2010,03,20,17,07,12.60
2010,03,20,17,08,12.50
2010,03,20,17,09,12.50
2010,03,20,17,10,12.50
2010,03,20,17,11,12.50
2010,03,20,17,12,12.50
2010,03,20,17,13,12.50
2010,03,20,17,14,12.40
2010,03,20,17,15,12.40
2010,03,20,17,16,12.40
2010,03,20,17,17,12.30
2010,03,20,17,18,12.30
2010,03,20,17,19,12.30
2010,03,20,17,20,12.30
2010,03,20,17,21,12.30
2010,03,20,17,22,12.30
2010,03,20,17,23,12.30
2010,03,20,17,24,12.30
2010,03,20,17,25,12.30
2010,03,20,17,26,12.30
2010,03,20,17,27,12.20
2010,03,20,17,28,12.20
2010,03,20,17,29,12.10
2010,03,20,17,30,12.10
2010,03,20,17,31,12.10
2010,03,20,17,32,12.00
2010,03,20,17,33,12.00
2010,03,20,17,34,11.90
2010,03,20,17,35,11.90
2010,03,20,17,36,11.90
2010,03,20,17,37,11.90
2010,03,20,17,38,11.80
2010,03,20,17,39,11.80
2010,03,20,17,40,11.80
2010,03,20,17,41,11.80
2010,03,20,17,42,11.80
2010,03,20,17,43,11.80
2010,03,20,17,44,11.80
2010,03,20,17,45,11.80
2010,03,20,17,46,11.80
2010,03,20,17,47,11.80
2010,03,20,17,48,11.80
2010,03,20,17,49,11.80
2010,03,20,17,50,11.80
2010,03,20,17,51,11.80
2010,03,20,17,52,11.80
2010,03,20,17,53,11.80
2010,03,20,17,54,11.80
2010,03,20,17,55,11.80
2010,03,20,17,56,11.80
2010,03,20,17,57,11.80
2010,03,20,17,58,11.90
2010,03,20,17,59,11.90
2010,03,20,18,00,11.90
2010,03,20,18,01,11.90
2010,03,20,18,02,11.90
2010,03,20,18,03,11.90
2010,03,20,18,04,11.80
2010,03,20,18,05,11.80
2010,03,20,18,06,11.80
2010,03,20,18,07,11.80
2010,03,20,18,08,11.90
2010,03,20,18,09,11.90
2010,03,20,18,10,11.90
2010,03,20,18,11,11.90
2010,03,20,18,12,11.90
2010,03,20,18,13,11.90
2010,03,20,18,14,12.00
2010,03,20,18,15,12.00
2010,03,20,18,16,12.00
2010,03,20,18,17,11.90
2010,03,20,18,18,11.90
2010,03,20,18,19,11.80
2010,03,20,18,20,11.80
2010,03,20,18,21,11.80
2010,03,20,18,22,11.80
2010,03,20,18,23,11.80
2010,03,20,18,24,11.80
2010,03,20,18,25,11.80
2010,03,20,18,26,11.70
2010,03,20,18,27,11.70
2010,03,20,18,28,11.60
2010,03,20,18,29,11.60
2010,03,20,18,30,11.60
2010,03,20,18,31,11.60
2010,03,20,18,32,11.60
2010,03,20,18,33,11.60
2010,03,20,18,34,11.60
2010,03,20,18,35,11.60
2010,03,20,18,36,11.60
2010,03,20,18,37,11.60
2010,03,20,18,38,11.60
2010,03,20,18,39,11.60
2010,03,20,18,40,11.60
2010,03,20,18,41,11.50
2010,03,20,18,42,11.40
2010,03,20,18,43,11.40
2010,03,20,18,44,11.40
2010,03,20,18,45,11.30
2010,03,20,18,46,11.30
2010,03,20,18,47,11.20
2010,03,20,18,48,11.20
2010,03,20,18,49,11.10
2010,03,20,18,50,11.10
2010,03,20,18,51,11.10
2010,03,20,18,52,11.10
2010,03,20,18,53,10.90
2010,03,20,18,54,10.90
2010,03,20,18,55,10.90
2010,03,20,18,56,10.90
2010,03,20,18,57,10.90
2010,03,20,18,58,10.80
2010,03,20,18,59,10.80
2010,03,20,19,00,10.80
2010,03,20,19,01,10.80
2010,03,20,19,02,10.70
2010,03,20,19,03,10.70
2010,03,20,19,04,10.70
2010,03,20,19,05,10.60
2010,03,20,19,06,10.60
2010,03,20,19,07,10.60
2010,03,20,19,08,10.60
2010,03,20,19,09,10.60
2010,03,20,19,10,10.50
2010,03,20,19,11,10.40
2010,03,20,19,12,10.40
2010,03,20,19,13,10.40
2010,03,20,19,14,10.40
2010,03,20,19,15,10.40
2010,03,20,19,16,10.40
2010,03,20,19,17,10.30
2010,03,20,19,18,10.30
2010,03,20,19,19,10.30
2010,03,20,19,20,10.30
2010,03,20,19,21,10.30
2010,03,20,19,22,10.20
2010,03,20,19,23,10.20
2010,03,20,19,24,10.20
2010,03,20,19,25,10.10
2010,03,20,19,26,10.10
2010,03,20,19,27,10.10
2010,03,20,19,28,10.10
2010,03,20,19,29,10.10
2010,03,20,19,30,10.10
2010,03,20,19,31,9.90
2010,03,20,19,32,9.90
2010,03,20,19,33,9.90
2010,03,20,19,34,9.90
2010,03,20,19,35,10.00
2010,03,20,19,36,10.10
2010,03,20,19,37,10.10
2010,03,20,19,38,10.10
2010,03,20,19,39,10.10
2010,03,20,19,40,10.10
2010,03,20,19,41,10.10
2010,03,20,19,42,10.10
2010,03,20,19,43,10.10
2010,03,20,19,44,10.10
2010,03,20,19,45,10.10
2010,03,20,19,46,10.20
2010,03,20,19,47,10.30
2010,03,20,19,48,10.30
2010,03,20,19,49,10.40
2010,03,20,19,50,10.40
2010,03,20,19,51,10.40
2010,03,20,19,52,10.40
2010,03,20,19,53,10.40
2010,03,20,19,54,10.40
2010,03,20,19,55,10.40
2010,03,20,19,56,10.30
2010,03,20,19,57,10.30
2010,03,20,19,58,10.20
2010,03,20,19,59,10.20
2010,03,20,20,00,10.20
2010,03,20,20,01,10.30
2010,03,20,20,02,10.30
2010,03,20,20,03,10.40
2010,03,20,20,04,10.40
2010,03,20,20,05,10.40
2010,03,20,20,06,10.40
2010,03,20,20,07,10.40
2010,03,20,20,08,10.40
2010,03,20,20,09,10.40
2010,03,20,20,10,10.40
2010,03,20,20,11,10.50
2010,03,20,20,12,10.60
2010,03,20,20,13,10.60
2010,03,20,20,14,10.60
2010,03,20,20,15,10.50
2010,03,20,20,16,10.40
2010,03,20,20,17,10.40
2010,03,20,20,18,10.40
2010,03,20,20,19,10.40
2010,03,20,20,20,10.40
2010,03,20,20,21,10.40
2010,03,20,20,22,10.40
2010,03,20,20,23,10.50
2010,03,20,20,24,10.60
2010,03,20,20,25,10.60
2010,03,20,20,26,10.60
2010,03,20,20,27,10.60
2010,03,20,20,28,10.60
2010,03,20,20,29,10.60
2010,03,20,20,30,10.60
2010,03,20,20,31,10.60
2010,03,20,20,32,10.60
2010,03,20,20,33,10.60
2010,03,20,20,34,10.60
2010,03,20,20,35,10.60
2010,03,20,20,36,10.50
2010,03,20,20,37,10.40
2010,03,20,20,38,10.40
2010,03,20,20,39,10.40
2010,03,20,20,40,10.40
2010,03,20,20,41,10.30
2010,03,20,20,42,10.30
2010,03,20,20,43,10.30
2010,03,20,20,44,10.30
2010,03,20,20,45,10.30
2010,03,20,20,46,10.20
2010,03,20,20,47,10.20
2010,03,20,20,48,10.20
2010,03,20,20,49,10.20
2010,03,20,20,50,10.20
2010,03,20,20,51,10.10
2010,03,20,20,52,10.10
2010,03,20,20,53,10.10
2010,03,20,20,54,10.10
2010,03,20,20,55,10.10
2010,03,20,20,56,10.10
2010,03,20,20,57,10.10
2010,03,20,20,58,10.10
2010,03,20,20,59,10.10
2010,03,20,21,00,10.10
2010,03,20,21,01,10.10
2010,03,20,21,02,10.10
2010,03,20,21,03,10.10
2010,03,20,21,04,10.10
2010,03,20,21,05,10.10
2010,03,20,21,06,10.10
2010,03,20,21,07,10.10
2010,03,20,21,08,10.10
2010,03,20,21,09,10.10
2010,03,20,21,10,10.10
2010,03,20,21,11,10.10
2010,03,20,21,12,10.10
2010,03,20,21,13,10.10
2010,03,20,21,14,10.20
2010,03,20,21,15,10.20
2010,03,20,21,16,10.20
2010,03,20,21,17,10.30
2010,03,20,21,18,10.30
2010,03,20,21,19,10.40
2010,03,20,21,20,10.40
2010,03,20,21,21,10.40